Regional Weather Roundup
Issued by NWS

Home | Current Version | Previous Version | Graphics & Text | Print | Product List | Glossary Off
Versions: 1 2 3 4 5 6 7 8 9 10 11 12 13 14 15 16 17 18 19 20 21 22 23 24 25 26 27 28 29 30 31 32 33 34 35 36 37 38 39 40 41 42 43 44 45 46 47 48 49 50

983
ASUS43 KMPX 271610
RWRMN
WEATHER ROUNDUP FOR MINNESOTA
NATIONAL WEATHER SERVICE TWIN CITIES/CHANHASSEN MN
1100 AM CDT SUN MAY 27 2018


NOTE: "FAIR" INDICATES FEW OR NO CLOUDS BELOW 12,000 FEET WITH NO
SIGNIFICANT WEATHER AND/OR OBSTRUCTIONS TO VISIBILITY. N/A MEANS
CURRENT SKY AND/OR WEATHER CONDITIONS ARE NOT AVAILABLE.

MNZ060>063-068>070-271700-
   Twin Cities Metro

CITY           SKY/WX    TMP DP  RH WIND       PRES   REMARKS
TWIN CITIES    CLOUDY    88  64  44 VRB3      29.87R
ST PAUL        FAIR      86  65  49 CALM      29.87R
CRYSTAL        FAIR      87  62  43 N5        29.87R
BLAINE         CLOUDY    86  63  45 CALM      29.88R
LAKEVILLE      FAIR      88  63  42 W6        29.88R
EDEN PRAIRIE   FAIR      86  64  47 NW5       29.87R
SOUTH ST PAUL  FAIR      84  65  51 N3        29.87R
LAKE ELMO      FAIR      84  64  51 W5        29.90R
$$
MNZ001>005-007-008-013>017-022>024-027-028-271700-
   Northwest Minnesota

CITY           SKY/WX    TMP DP  RH WIND       PRES   REMARKS
BEMIDJI        LGT RAIN  64  60  87 S8        29.87F
HALLOCK        FAIR      73  64  73 E7        29.81R
ROSEAU         FAIR      72  64  78 E6        29.82R
WARROAD        FAIR      70  64  83 E8        29.83S
THIEF RVR FALL FAIR      67  62  84 E6        29.82R
CROOKSTON      FAIR      66  66 100 SE8       29.79S
FOSSTON        DRIZZLE   63  61  94 SE12      29.80F
DETROIT LAKES  FAIR      63  61  94 E5        29.86F
MOORHEAD       FAIR      70  61  73 E14       29.75F
PARK RAPIDS    LGT RAIN  65  60  84 NW21G35   29.98R
MAHNOMEN       FAIR      64  61  88 E13G18    29.78F
$$
MNZ006-009>011-018-025>026-271700-
   North Central Minnesota

CITY           SKY/WX    TMP DP  RH WIND       PRES   REMARKS
FLAG ISLAND    FAIR      68  61  77 CALM      29.81F
INTL FALLS     FAIR      75  61  61 CALM      29.85F
WASKISH        FAIR      70  63  78 E6        29.77F
BIG FORK       FAIR      73  64  73 SW3       29.90S
LONGVILLE      FAIR      72  59  64 W13       29.94R
GRAND RAPIDS   FAIR      76  61  59 VRB3      29.91S
ORR            FAIR      75  59  57 CALM      29.85F
COOK           FAIR      77  61  57 W6        29.88F
WALKER         FAIR      66  57  72 W14G22    29.94R
$$
MNZ012-019>021-037-271700-
   Northeast Minnesota

CITY           SKY/WX    TMP DP  RH WIND       PRES   REMARKS
DULUTH         FAIR      81  58  45 NW8       29.89S
ELY            FAIR      77  55  47 W12G17    29.89R
HIBBING        FAIR      75  60  59 W5        29.90S
EVELETH        FAIR      77  61  57 SW6       29.90F
DULUTH HARBOR  FAIR      63  57  82 E3        29.87S
TWO HARBORS    FAIR      81  61  50 W7        29.85F
SILVER BAY     FAIR      84  57  39 W7        29.84F
GRAND MARAIS     N/A     40  38  93 CALM      29.87R
G MARAIS ARPRT FAIR      77  55  47 NW3       29.89R
$$
MNZ029>031-032-039>041-046>048-054>057-064-271700-
   West Central Minnesota

CITY           SKY/WX    TMP DP  RH WIND       PRES   REMARKS
FERGUS FALLS   FAIR      66  61  82 E12G17    29.81F
WHEATON        CLOUDY    66  59  77 NE13G18   29.87F
MORRIS         LGT RAIN  70  61  73 N23G31    29.89R
ALEXANDRIA     TSTM      68  59  73 N20G36    29.96R
ELBOW LAKE     LGT RAIN  66  60  81 NE16      29.88F
WADENA         TSTM      64  57  77 N16G25    29.96S
GLENWOOD       FAIR      72  57  60 NW18G36   29.92R
APPLETON       CLOUDY    75  59  57 E13       29.82S
BENSON         CLOUDY    75  61  60 SE6       29.86R
ORTONVILLE     CLOUDY    77  55  47 NE15G32   29.86R
MADISON        CLOUDY    82  57  42 E17       29.82F
WILLMAR        FAIR      70  61  73 E6        29.88F
$$
MNZ033>034-036-042>043-049>051-058-059-271700-
   Central Minnesota

CITY           SKY/WX    TMP DP  RH WIND       PRES   REMARKS
ST CLOUD       FAIR      74  55  51 N10       29.90F
SAUK CENTRE    FAIR      74  55  51 NW26G32   29.88R
PAYNESVILLE    FAIR      74  57  55 SW9       29.81F
AITKIN         FAIR      72  59  64 S7        29.89S
PINE RIVER     FAIR      68  55  64 NW6       29.99R
BRAINERD       FAIR      73  56  54 SE8       29.84F
STAPLES        TSTM      68  55  64 NW22G28   29.99R
LONG PRAIRIE   FAIR      68  57  68 W36G43    29.91R
LITTLE FALLS   PTSUNNY   64  59  82 SE12      29.84F
LITCHFIELD     FAIR      73  57  56 E8        29.86F
BUFFALO        FAIR      78  56  47 NW9G20    29.91R
MAPLE LAKE     FAIR      76  58  54 N9G17     29.91S
HUTCHINSON     FAIR      77  61  56 N13G18    29.91R
$$
MNZ037-044-045-052-053-271700-
   East Central Minnesota

CITY           SKY/WX    TMP DP  RH WIND       PRES   REMARKS
PRINCETON      FAIR      82  55  39 W14G21    29.92R
MORA           FAIR      77  61  57 W9        29.93R
CAMBRIDGE      FAIR      86  64  48 W8        29.91R
RUSH CITY      FAIR      81  62  52 CALM      29.89S
MOOSE LAKE     FAIR      81  61  50 CALM      29.87S
HINCKLEY       FAIR      81  64  57 CALM      29.89S
CLOQUET        FAIR      81  55  41 CALM      29.89S
MCGREGOR       FAIR      79  57  47 SW5       29.90S
$$
MNZ071>073-080-081-089-090-097-098-271700-
   Southwest Minnesota

CITY           SKY/WX    TMP DP  RH WIND       PRES   REMARKS
MONTEVIDEO     CLOUDY    79  55  44 SE15G21   29.83F
CANBY          CLOUDY    82  54  38 NE13      29.86S
MARSHALL       CLOUDY    81  57  43 E16       29.85R
REDWOOD FALLS  CLOUDY    79  58  48 NE8       29.87R
OLIVIA         CLOUDY    72  59  64 NE8       29.87F
PIPESTONE      CLOUDY    90  55  31 SW6       29.84S
WINDOM         CLOUDY    91  57  31 SE5       29.85R HX  90
WORTHINGTON    CLOUDY    91  58  32 MISG      29.85S HX  90
JACKSON        MOSUNNY   90  55  31 S6        29.86S
TRACY          CLOUDY    89  58  35 E3        29.85R
SLAYTON        MOSUNNY   91  57  31 SW7       29.85S HAZE    HX  90
$$
MNZ065>067-074>077-082>085-091>093-271700-
   South Central Minnesota

CITY           SKY/WX    TMP DP  RH WIND       PRES   REMARKS
MANKATO        FAIR      91  55  29 NE8       29.86S
NEW ULM        PTSUNNY   88  55  33 NE5       29.86R
ST JAMES       CLOUDY    93  48  21 SE5       29.85R HX  90
FAIRMONT       MOSUNNY   92  58  31 SE9       29.84S HX  91
GLENCOE        FAIR      83  62  49 N14       29.88R
FARIBAULT      FAIR      88  64  45 CALM      29.88R
OWATONNA       FAIR      90  63  40 N3        29.87S HX  90
WASECA         FAIR      91  57  31 NE6       29.88S HX  90
ALBERT LEA     FAIR      90  46  22 SE3       29.87S
$$
MNZ078>079-086>088-094>096-271700-
   Southeast Minnesota

CITY           SKY/WX    TMP DP  RH WIND       PRES   REMARKS
ROCHESTER      FAIR      89  65  44 CALM      29.89R HX  91
RED WING       FAIR      86  61  42 W3        29.86R
STANTON        FAIR      85  67  55 CALM      29.87R
DODGE CENTER   FAIR      90  55  31 CALM      29.89R
WINONA         FAIR      82  66  57 CALM      29.86R
AUSTIN         FAIR      88  63  42 CALM      29.88R
PRESTON        FAIR      86  63  44 CALM      29.90R
$$
ABBREVIATIONS USED IN REMARKS
   TC - TEMPERATURES IN CELSIUS
  WCI - WIND CHILL INDEX
   HX - HEAT INDEX
  VSB - VISIBILITY
$$




USA.gov is the U.S. government's official web portal to all federal, state and local government web resources and services.